Regional Weather Roundup
Issued by NWS Newport/Morehead, NC

Current Version | Previous Version | Text Only | Print | Product List | Glossary On
Versions: 1 2 3 4 5 6 7 8 9 10 11 12 13 14 15 16 17 18 19 20 21 22 23 24 25 26 27 28 29 30 31 32 33 34 35 36 37 38 39 40 41 42 43 44 45 46 47 48 49 50
876 ASUS42 KMHX 252025 RWRMHX WEATHER ROUNDUP FOR EASTERN NORTH CAROLINA NATIONAL WEATHER SERVICE NEWPORT/MOREHEAD CITY NC 400 PM EDT THU AUG 25 2016 NOTE: "FAIR" INDICATES FEW OR NO CLOUDS BELOW 12,000 FEET WITH NO SIGNIFICANT WEATHER AND/OR OBSTRUCTIONS TO VISIBILITY NCZ015>017-031-032-045>047-102-103-252100- NORTH COAST CITY SKY/WX TMP DP RH WIND PRES REMARKS EDENTON SUNNY 88 64 45 S3 30.09F ELIZABETH CITY SUNNY 86 64 47 VRB7 30.08F KITTY HAWK CLEAR 89 68 50 SE8 30.09F MANTEO SUNNY 83 66 56 SW10 30.10F $$ NCZ045>047-081-094-103-104-252100- CENTRAL COAST CITY SKY/WX TMP DP RH WIND PRES REMARKS FRISCO MOSUNNY 87 66 49 SE7 30.10F $$ NCZ095-097-098-100-101-252100- SOUTHERN COAST CITY SKY/WX TMP DP RH WIND PRES REMARKS BEAUFORT MOSUNNY 85 68 56 E7 30.10F CEDAR ISLAND NOT AVBL JACKSONVILLE MOSUNNY 87 67 51 SE13 30.09F PINEY ISLAND NOT AVBL WILMINGTON SUNNY 85 68 56 SE7 30.10F $$ NCZ011>013-027>030-043-044-078>080-089-090>093-098-252100- COASTAL PLAIN CITY SKY/WX TMP DP RH WIND PRES REMARKS AHOSKIE SUNNY 85 69 57 S3 30.07F CLINTON MOSUNNY 88 71 57 CALM 30.09F ELIZABETHTOWN CLOUDY 90 67 47 CALM 30.09F GOLDSBORO PTSUNNY 90 68 48 SE7 30.07F HAZE GREENVILLE PTSUNNY 88 68 51 SE7 30.10F HAVELOCK MOSUNNY 86 65 49 E6 30.10F KENANSVILLE MOSUNNY 86 70 58 CALM 30.09F KINSTON MOSUNNY 90 66 45 SE6 30.09F NEW BERN SUNNY 87 66 49 VRB5 30.10F RICHLANDS MOSUNNY 88 68 51 CALM 30.09F ROCKY MOUNT MOSUNNY 90 69 50 S9 30.08F WASHINGTON PTSUNNY 85 67 55 CALM 30.08F WHITEVILLE PTSUNNY 88 67 49 CALM 30.09F $$ AMZ130-135-150-152-154-156-158-170-250-252-270-ANZ085-086-088-633-658-670-252100- MARINE OBSERVATIONS STATION/POSITION TIME TEMP WIND PRES WAVE SWELL AIR SEA DIR/SP/G HT/PER HT/PER (UTC) (F) (DEG/KT/KT) (MB) (FT/S) (FT/S) CHESAPEAKE LIGHT NOT AVBL 64 E VA BEACH 1950 79 83 210/ 4/ 6 1019.4 3/10 3/10 DUCK 2000 81 80 130/ 11/ 12 1018.5 2 E DUCK 1911 78 N/A 2/10 OREGON INLET 2000 82 81 110/ 5/ 10 1019.3 13E OREGON INLT 2000 81 N/A 2/ 9 2/ 9 HATTERAS CG 2000 82 80 110/ 6/ 8 1019.1 DIAMOND BUOY 1950 81 85 80/ 6/ 8 1019.5 3/ 9 3/ 9 CAPE LOOKOUT 2000 82 110/ 7/ 8 1019.0 BEAUFORT LAB 2000 82 81 120/ 10/ 12 1018.6 30 SE NEW RVR IN 2008 82 85 100/ 8/ 12 1019.2 30 SE NEW RVR IN 1925 85 N/A 3/11 27 SE WRIGHTSVLE 1908 82 83 80/ 8/ 12 1019.9 5 SE WRIGHTSVLE 2008 82 83 130/ 10/ 14 1020.1 225 S CAPE HAT 1950 82 84 50/ 14/ 17 1017.7 5/ 8 3/ 8 41 SE CHARLESTON 1950 83 84 60/ 12/ 14 1018.5 3/10 3/10 $$

USA.gov is the U.S. government's official web portal to all federal, state and local government web resources and services.